Regional Weather Roundup
Issued by NWS

Home | Current Version | Previous Version | Text Only | Print | Product List | Glossary Off
Versions: 1 2 3 4 5 6 7 8 9 10 11 12 13 14 15 16 17 18 19 20 21 22 23 24 25 26 27 28 29 30 31 32 33 34 35 36 37 38 39 40 41 42 43 44 45 46 47 48 49 50

000
ASUS43 KOAX 231310
RWRNE

WEATHER ROUNDUP FOR NEBRASKA
NATIONAL WEATHER SERVICE OMAHA NE
800 AM CDT WED AUG 23 2017

NOTES: SATELLITE DATA IS BEING USED TO AUGMENT CLOUD COVER ABOVE
       12000 FEET.
       "FAIR" INDICATES FEW OR NO CLOUDS BELOW 12,000 FEET WITH NO
       SIGNIFICANT WEATHER AND/OR OBSTRUCTIONS TO VISIBILITY.


NEZ001>004-019>022-054>056-231400-
NEBRASKA PANHANDLE

CITY           SKY/WX    TMP DP  RH WIND       PRES   REMARKS
SCOTTSBLUFF    CLEAR     56  52  86 E6        30.12S
ALLIANCE       CLEAR     55  49  80 S7        30.13R
CHADRON        CLEAR     62  54  74 S9        30.08R
GORDON         FAIR      61  49  64 SW5       30.11S
KIMBALL        CLEAR     52  52 100 W3        30.17S
SIDNEY         CLEAR     57  52  83 S9        30.16R
$$

NEZ057>060-069>072-079>082-231400-
SOUTHWEST NEBRASKA

CITY           SKY/WX    TMP DP  RH WIND       PRES   REMARKS
NORTH PLATTE   SUNNY     59  51  75 SE5       30.17S
IMPERIAL       CLEAR     58  47  66 S12       30.18S
LEXINGTON      SUNNY     58  52  79 S7        30.18S
MCCOOK         SUNNY     59  51  75 S6        30.18R
OGALLALA       CLEAR     59  50  71 S5        30.17S
$$

NEZ005>010-023>029-035>040-094-231400-
NORTH CENTRAL NEBRASKA

CITY           SKY/WX    TMP DP  RH WIND       PRES   REMARKS
VALENTINE      PTSUNNY   62  52  69 S5        30.10S
AINSWORTH      SUNNY     60  53  77 S9        30.12S
BROKEN BOW     SUNNY     58  53  84 S5        30.16S
O`NEILL        CLOUDY    58  55  89 S6        30.15R
ORD            SUNNY     57  52  83 E3        30.15R
THEDFORD       SUNNY     62  51  68 S14G20    30.15S
$$

NEZ041-046>049-061>064-073>077-083>087-231400-
SOUTH CENTRAL NEBRASKA

CITY           SKY/WX    TMP DP  RH WIND       PRES   REMARKS
GRAND ISLAND   SUNNY     60  53  77 S10       30.18R
AURORA         SUNNY     59  53  80 S9        30.18R
HASTINGS       SUNNY     57  51  80 S6        30.19S
HEBRON         SUNNY     55  53  93 CALM      30.19R
HOLDREGE       SUNNY     57  51  82 S7        30.18S
KEARNEY        SUNNY     56  53  90 S7        30.19R
YORK           SUNNY     57  54  88 S6        30.18S
$$

NEZ011>018-030>034-042>045-231400-
NORTHEAST NEBRASKA

CITY           SKY/WX    TMP DP  RH WIND       PRES   REMARKS
NORFOLK        SUNNY     56  54  93 E3        30.16S
ALBION         CLOUDY    58  55  89 CALM      30.17S
BLAIR          SUNNY     59  54  83 W3        30.17R
COLUMBUS       SUNNY     57  55  93 CALM      30.18S
FREMONT        SUNNY     58  56  94 CALM      30.17S
TEKAMAH        MOSUNNY   54  53  97 CALM      30.17R FOG
WAYNE          SUNNY     53  50  91 CALM      30.17R
$$

NEZ050>053-065>068-078-088>093-231400-
SOUTHEAST NEBRASKA

CITY           SKY/WX    TMP DP  RH WIND       PRES   REMARKS
LINCOLN        SUNNY     57  55  93 S3        30.18S
OMAHA EPPLEY   SUNNY     60  56  86 E3        30.17R
BEATRICE       SUNNY     57  55  92 CALM      30.18S
FALLS CITY     SUNNY     55  54  96 CALM      30.16R
NEBRASKA CITY  SUNNY     59  57  94 CALM      30.17S
PLATTSMOUTH    SUNNY     58  52  81 CALM      30.17S
$$

NEZ044-045-051>053-067-231400-
OMAHA AREA

CITY           SKY/WX    TMP DP  RH WIND       PRES   REMARKS
OMAHA EPPLEY   SUNNY     60  56  86 E3        30.17R
BLAIR          SUNNY     59  54  83 W3        30.17R
FREMONT        SUNNY     58  56  94 CALM      30.17S
MILLARD        SUNNY     59  57  92 CALM      30.17S
OFFUTT AFB     SUNNY     56  56  97 CALM      30.17R
PLATTSMOUTH    SUNNY     58  52  81 CALM      30.17S
WAHOO          FAIR      56  55  96 CALM      30.17S
$$




USA.gov is the U.S. government's official web portal to all federal, state and local government web resources and services.